CST,Max TemperatureF,Mean TemperatureF,Min TemperatureF,Max Dew PointF,MeanDew PointF,Min DewpointF,Max Humidity, Mean Humidity, Min Humidity, Max Sea Level PressureIn, Mean Sea Level PressureIn, Min Sea Level PressureIn, Max VisibilityMiles, Mean VisibilityMiles, Min VisibilityMiles, Max Wind SpeedMPH, Mean Wind SpeedMPH, Max Gust SpeedMPH,PrecipitationIn, CloudCover, Events, WindDirDegrees
2012-11-1,41,34,28,28,25,19,80,69,57,30.02,29.96,29.89,10,10,5,12,6,23,0.00,4,,325
2012-11-2,35,26,17,23,19,12,86,71,56,30.20,30.12,30.02,10,10,10,7,3,,0.00,1,,34
2012-11-3,37,32,26,27,25,21,86,76,60,30.25,30.22,30.19,10,10,5,10,3,,0.00,7,Snow,84
2012-11-4,35,30,24,25,23,21,86,72,65,30.25,30.23,30.20,10,10,10,10,3,,0.00,8,,49
2012-11-5,37,34,30,28,25,21,86,73,60,30.24,30.13,29.89,10,9,2,10,4,,0.00,7,Snow,83
2012-11-6,37,34,32,34,30,28,93,82,81,29.90,29.77,29.69,10,7,2,14,3,20,0.18,8,Rain,189
2012-11-7,39,34,28,34,30,25,87,82,75,30.04,30.00,29.90,10,10,7,6,1,,0.00,7,,278
2012-11-8,48,39,30,34,32,27,87,74,58,30.04,29.95,29.85,10,10,7,16,3,21,0.00,5,Rain,225
2012-11-9,39,36,33,34,29,27,87,76,70,30.15,30.11,30.04,10,9,2,22,8,31,0.00,8,,47
2012-11-10,42,38,33,37,33,28,87,83,81,30.10,29.79,29.50,10,4,0,30,20,41,0.42,8,Rain-Snow-Thunderstorm,66
2012-11-11,46,34,23,43,29,14,87,78,64,29.75,29.60,29.44,10,8,0,16,6,22,0.14,8,Rain-Snow-Thunderstorm,260
2012-11-12,24,22,19,16,14,10,80,71,59,30.13,29.88,29.75,10,8,1,15,11,24,0.00,8,Snow,249
2012-11-13,33,25,17,21,17,12,80,70,52,30.28,30.23,30.14,10,10,10,13,6,18,0.00,4,,231
2012-11-14,41,32,23,27,23,19,86,75,57,30.24,30.18,30.09,10,10,10,7,1,,0.00,5,,190
2012-11-15,44,32,21,30,18,7,86,60,27,30.44,30.19,30.05,10,9,5,13,3,21,0.00,2,,285
2012-11-16,37,26,15,23,17,10,86,69,52,30.47,30.41,30.31,10,10,10,9,3,,0.00,0,,55
2012-11-17,48,34,19,36,28,16,87,77,58,30.31,30.23,30.19,10,9,4,16,2,20,0.06,2,Rain,177
2012-11-18,50,39,28,36,32,23,87,74,53,30.21,30.12,30.06,10,9,4,9,3,,0.02,4,Rain,80
2012-11-19,48,38,28,37,30,23,87,79,66,30.08,30.03,29.99,10,9,5,5,1,,0.01,3,Rain-Thunderstorm,339
2012-11-20,44,34,24,32,27,19,87,78,57,30.12,30.07,30.02,10,6,0,7,2,,0.00,2,Fog,358
2012-11-21,46,37,28,37,30,25,87,80,71,30.02,29.86,29.65,10,4,0,6,1,,0.00,3,Fog-Snow,40
2012-11-22,53,40,26,43,29,21,86,78,54,29.68,29.59,29.52,10,5,0,14,5,25,0.14,3,Rain-Snow,286
2012-11-23,26,20,14,23,12,7,86,71,63,30.27,30.07,29.69,10,6,1,18,11,37,0.07,7,Snow,311
2012-11-24,21,11,1,16,9,-4,86,78,68,30.25,30.04,29.75,10,7,1,10,2,,0.05,6,Snow,213
2012-11-25,23,16,10,18,13,1,86,75,63,30.07,29.85,29.74,10,9,3,13,6,21,0.01,7,Snow,281
2012-11-26,15,8,1,7,1,-4,85,67,53,30.27,30.22,30.08,10,9,4,9,4,,0.00,3,Snow,275
2012-11-27,26,20,14,19,13,7,86,76,68,30.19,30.08,30.01,10,7,1,8,6,,0.00,7,Snow,243
2012-11-28,24,17,10,18,11,3,86,74,64,30.24,30.14,30.03,10,9,4,15,5,22,0.00,5,Snow,252
2012-11-29,26,22,17,21,15,10,86,79,68,30.22,30.16,30.07,10,10,5,21,5,26,0.00,7,,45
2012-11-30,32,29,26,27,22,19,86,76,74,30.22,30.17,30.06,10,10,10,17,12,26,0.00,8,,94